Simultaneous Nadir Overpasses (SNOs) Predictions

Prediction of SNOs between GOES-14 and AQUA Satellite Orbit:

Table of predicted SNOs for the next 14.0 days since TLE Epoch: 7/2/2022
Index Date Time (GOES-14) GOES-14 Lat,Lon AQUA Lat,Lon Distance(km) Time Diff (sec)
1 07/02/2022 08:20:38 -0.18,-104.54 -1.12,-100.25 488.13 80
2 07/02/2022 20:39:16 0.20,-104.83 0.07,-105.42 67.96 80
3 07/04/2022 20:29:21 0.20,-104.82 0.73,-102.36 279.08 80
4 07/05/2022 08:47:50 -0.23,-104.52 0.38,-107.49 336.86 80
5 07/07/2022 08:35:14 -0.22,-104.51 -0.23,-104.42 10.43 80
6 07/09/2022 08:25:19 -0.23,-104.50 -0.90,-101.36 357.00 80
7 07/09/2022 20:43:58 0.25,-104.78 -0.14,-106.53 199.58 80
8 07/11/2022 20:34:03 0.26,-104.76 0.55,-103.48 146.58 80
9 07/12/2022 08:52:31 -0.28,-104.47 0.62,-108.59 468.82 80
10 07/13/2022 20:21:27 0.26,-104.74 1.18,-100.41 492.66 80
11 07/14/2022 08:39:56 -0.28,-104.45 -0.08,-105.54 122.85 80
